�N����,����,�~����,�C��,���x,�C��,����,���ϕ���,�ő�u�ԕ���,�ő厞����,���˗�,�I�_���x,�n�����x,�ő啗���N��,DTYPE
"16/09/24","00:10",0.0,18.6,90.8,1010.7,317.7,1.7,2.4,319.9,0.00,17.1,21.9,"00:01:52",1
"16/09/24","00:20",0.0,18.5,91.1,1010.9,316.6,1.8,2.7,336.2,0.00,17.1,21.8,"00:12:40",1
"16/09/24","00:30",0.0,18.4,91.3,1010.7,315.1,1.5,2.1,337.1,0.00,17.0,21.8,"00:20:16",1
"16/09/24","00:40",0.0,18.3,91.6,1010.4,317.3,1.5,3.1,333.2,0.00,16.9,21.7,"00:32:24",1
"16/09/24","00:50",0.0,18.3,91.8,1010.7,322.5,1.5,3.4,341.9,0.00,17.0,21.7,"00:49:52",1
"16/09/24","01:00",0.0,18.3,91.9,1010.4,331.1,1.6,2.9,351.3,0.00,17.0,21.7,"00:54:56",1
"16/09/24","01:10",0.0,18.3,91.8,1010.4,330.5,1.8,3.4,344.0,0.00,17.0,21.6,"01:09:36",1
"16/09/24","01:20",0.0,18.3,91.8,1010.2,317.1,1.5,2.2,353.2,0.00,17.0,21.3,"01:13:52",1
"16/09/24","01:30",0.0,18.1,92.1,1010.2,324.9,1.5,3.1,337.4,0.00,16.8,21.5,"01:22:48",1
"16/09/24","01:40",0.0,18.1,92.4,1010.2,334.8,1.8,3.3,338.3,0.00,16.9,21.6,"01:37:36",1
"16/09/24","01:50",0.0,18.1,92.5,1010.4,333.0,1.7,3.7,345.1,0.00,16.9,21.6,"01:42:16",1
"16/09/24","02:00",0.0,18.1,92.6,1010.4,328.2,1.5,3.2,341.1,0.00,16.9,21.4,"01:50:56",1
"16/09/24","02:10",0.0,18.1,92.6,1010.7,327.2,1.5,3.2,330.5,0.00,16.9,21.5,"02:01:20",1
"16/09/24","02:20",0.0,18.0,92.7,1010.7,327.3,1.6,2.8,354.3,0.00,16.8,21.4,"02:14:08",1
"16/09/24","02:30",0.0,18.0,92.8,1010.4,321.6,1.5,2.6,327.0,0.00,16.9,21.4,"02:24:16",1
"16/09/24","02:40",0.0,18.0,92.8,1010.4,318.8,1.5,2.4,347.8,0.00,16.9,21.3,"02:30:02",1
"16/09/24","02:50",0.0,18.0,92.8,1010.4,316.2,1.6,2.6,341.7,0.00,16.9,21.3,"02:49:44",1
"16/09/24","03:00",0.0,17.9,92.9,1010.2,329.6,1.7,3.1,335.4,0.00,16.8,21.4,"02:58:32",1
"16/09/24","03:10",0.0,17.9,92.9,1010.4,325.5,1.5,2.9,342.0,0.00,16.8,21.5,"03:03:12",1
"16/09/24","03:20",0.0,17.9,92.9,1010.2,327.8,1.5,2.6,341.8,0.00,16.8,21.2,"03:14:16",1
"16/09/24","03:30",0.0,17.9,93.0,1010.4,324.7,1.3,2.7,338.1,0.00,16.8,21.3,"03:22:08",1
"16/09/24","03:40",0.0,17.9,93.1,1010.0,333.6,1.7,2.6,344.1,0.00,16.8,21.2,"03:35:36",1
"16/09/24","03:50",0.0,17.9,93.1,1010.0,328.5,1.6,3.1,339.4,0.00,16.8,21.2,"03:45:04",1
"16/09/24","04:00",0.0,17.9,93.1,1009.7,320.3,1.5,3.1,347.3,0.00,16.8,21.2,"03:52:32",1
"16/09/24","04:10",0.0,17.9,93.1,1010.0,310.9,1.3,2.0,312.9,0.00,16.8,21.4,"04:00:32",1
"16/09/24","04:20",0.0,17.9,93.1,1010.4,312.3,1.5,2.1,309.7,0.00,16.8,21.4,"04:14:00",1
"16/09/24","04:30",0.0,17.8,93.1,1010.2,332.1,1.7,3.4,334.7,0.00,16.7,21.3,"04:20:48",1
"16/09/24","04:40",0.0,17.8,93.2,1010.2,329.9,1.6,2.9,339.5,0.00,16.7,21.2,"04:31:04",1
"16/09/24","04:50",0.0,17.8,93.2,1010.4,328.2,1.6,2.2,341.4,0.00,16.7,21.0,"04:41:12",1
"16/09/24","05:00",0.0,17.7,93.2,1010.4,330.4,1.5,2.9,331.6,0.00,16.6,21.2,"04:50:56",1
"16/09/24","05:10",0.0,17.6,93.4,1010.0,327.0,1.5,3.7,336.6,0.00,16.6,21.2,"05:06:48",1
"16/09/24","05:20",0.0,17.6,93.5,1010.2,323.5,1.5,3.2,345.3,0.00,16.6,21.1,"05:14:00",1
"16/09/24","05:30",0.0,17.6,93.6,1010.4,329.5,1.7,3.4,336.5,0.00,16.6,21.1,"05:29:04",1
"16/09/24","05:40",0.0,17.6,93.5,1010.9,325.1,1.5,3.1,344.1,0.00,16.6,21.1,"05:35:36",1
"16/09/24","05:50",0.0,17.7,93.4,1011.2,326.9,1.7,3.7,348.7,0.00,16.7,21.1,"05:40:02",1
"16/09/24","06:00",0.0,17.7,93.3,1011.4,327.0,1.5,3.2,344.4,0.00,16.6,20.8,"05:54:40",1
"16/09/24","06:10",0.0,17.6,93.3,1011.9,331.1,1.6,3.6,347.0,0.00,16.5,21.1,"06:04:08",1
"16/09/24","06:20",0.0,17.6,93.4,1011.6,335.8,1.8,4.1,318.6,0.00,16.6,21.0,"06:16:00",1
"16/09/24","06:30",0.0,17.6,93.5,1011.6,340.1,1.7,3.1,351.8,0.00,16.6,21.1,"06:22:48",1
"16/09/24","06:40",0.0,17.9,93.5,1011.9,311.7,1.5,2.1,319.6,0.03,16.9,20.9,"06:30:16",1
"16/09/24","06:50",0.0,18.7,91.5,1011.4,315.7,1.5,2.7,338.0,0.04,17.3,20.9,"06:44:00",1
"16/09/24","07:00",0.0,18.9,90.6,1011.6,318.6,1.6,2.9,347.5,0.04,17.4,21.0,"06:59:52",1
"16/09/24","07:10",0.0,18.9,90.4,1011.6,313.3,1.5,2.4,329.4,0.03,17.3,21.0,"07:00:48",1
"16/09/24","07:20",0.0,18.9,90.4,1011.2,318.4,1.5,2.4,315.2,0.02,17.3,21.0,"07:14:56",1
"16/09/24","07:30",0.0,19.3,89.7,1011.6,324.9,1.6,3.7,346.2,0.06,17.6,21.2,"07:27:12",1
"16/09/24","07:40",0.0,20.2,86.9,1011.6,314.4,1.2,2.9,357.4,0.12,18.0,21.2,"07:30:16",1
"16/09/24","07:50",0.0,20.7,84.8,1011.4,316.3,1.0,2.0,349.5,0.14,18.1,21.2,"07:46:48",1
"16/09/24","08:00",0.0,20.7,85.4,1011.2,306.3,0.8,1.7,321.2,0.11,18.2,21.3,"07:55:20",1
"16/09/24","08:10",0.0,20.4,85.3,1011.4,317.2,0.8,1.7,329.6,0.09,17.9,21.5,"08:05:44",1
"16/09/24","08:20",0.0,20.5,85.2,1011.9,318.9,0.8,1.3,348.9,0.12,18.0,21.4,"08:10:40",1
"16/09/24","08:30",0.0,20.5,84.5,1011.4,324.5,1.2,2.6,354.8,0.06,17.8,21.3,"08:28:00",1
"16/09/24","08:40",0.0,20.2,85.7,1011.4,329.2,1.5,2.9,347.1,0.07,17.8,21.5,"08:34:56",1
"16/09/24","08:50",0.0,20.2,86.1,1011.9,312.5,1.0,2.5,37.3,0.07,17.8,21.6,"08:42:48",1
"16/09/24","09:00",0.0,20.2,86.1,1011.6,320.2,1.3,3.4,326.7,0.08,17.8,21.8,"08:56:08",1
"16/09/24","09:10",0.0,20.3,86.0,1011.6,306.8,1.0,2.2,333.4,0.09,17.9,21.8,"09:05:44",1
"16/09/24","09:20",0.0,20.5,85.6,1011.4,300.7,0.8,2.1,353.0,0.07,18.0,21.9,"09:10:16",1
"16/09/24","09:30",0.0,20.6,86.9,1011.2,303.3,0.8,1.6,336.0,0.10,18.4,21.8,"09:23:20",1
"16/09/24","09:40",0.0,21.3,83.7,1011.2,270.4,0.8,2.5,237.1,0.21,18.5,21.7,"09:33:12",1
"16/09/24","09:50",0.0,22.5,81.9,1010.9,288.9,0.5,1.4,356.3,0.25,19.3,22.0,"09:47:04",1
"16/09/24","10:00",0.0,23.0,79.1,1010.9,292.3,0.5,1.1,334.3,0.22,19.2,22.2,"09:50:16",1
"16/09/24","10:10",0.0,23.4,78.6,1011.2,324.5,0.6,1.6,344.9,0.24,19.5,22.4,"10:05:44",1
"16/09/24","10:20",0.0,23.2,77.7,1010.4,202.7,0.3,1.0,169.4,0.19,19.1,22.6,"10:15:12",1
"16/09/24","10:30",0.0,23.3,77.3,1010.7,274.5,0.6,0.9,272.8,0.14,19.1,22.6,"10:27:04",1
"16/09/24","10:40",0.0,23.3,78.8,1011.2,280.9,0.6,1.3,238.8,0.06,19.5,22.7,"10:31:28",1
"16/09/24","10:50",0.0,23.2,77.8,1010.7,304.5,0.7,1.1,309.4,0.06,19.2,22.7,"10:49:12",1
"16/09/24","11:00",0.0,23.2,78.3,1010.9,313.4,0.7,1.6,325.3,0.07,19.3,22.8,"10:51:04",1
"16/09/24","11:10",0.0,23.3,80.3,1010.7,318.3,1.0,2.1,347.5,0.07,19.8,22.8,"11:07:28",1
"16/09/24","11:20",0.0,23.2,81.2,1010.7,324.0,1.0,1.7,332.5,0.07,19.8,22.9,"11:10:24",1
"16/09/24","11:30",0.0,23.2,81.6,1010.2,298.7,0.6,1.3,309.1,0.05,19.9,22.9,"11:29:36",1
"16/09/24","11:40",0.0,23.1,82.2,1010.0,288.3,0.6,1.6,331.3,0.06,19.9,22.9,"11:32:24",1
"16/09/24","11:50",0.0,23.1,83.2,1010.0,280.1,0.6,1.2,320.8,0.04,20.1,22.9,"11:48:56",1
"16/09/24","12:00",0.0,23.0,83.8,1010.2,288.2,0.6,0.9,301.8,0.03,20.2,23.1,"11:57:52",1
"16/09/24","12:10",0.0,23.1,83.9,1009.7,323.2,0.7,1.2,340.2,0.04,20.3,23.1,"12:07:36",1
"16/09/24","12:20",0.0,23.2,83.9,1010.0,277.1,0.5,1.0,324.4,0.05,20.4,23.1,"12:10:08",1
"16/09/24","12:30",0.0,23.3,84.1,1009.3,293.9,0.5,0.9,320.5,0.04,20.5,23.0,"12:20:32",1
"16/09/24","12:40",0.0,23.5,84.9,1009.5,288.3,0.5,1.1,310.1,0.05,20.9,23.0,"12:30:32",1
"16/09/24","12:50",0.0,23.7,84.6,1009.7,311.1,0.6,1.1,323.7,0.05,21.0,23.1,"12:43:52",1
"16/09/24","13:00",0.0,23.9,84.1,1009.5,280.6,0.6,1.3,319.4,0.07,21.1,23.0,"12:50:40",1
"16/09/24","13:10",0.0,24.2,81.5,1009.3,277.9,0.6,1.4,243.7,0.13,20.9,23.2,"13:02:40",1
"16/09/24","13:20",0.0,24.7,82.0,1008.8,286.3,0.6,1.0,298.0,0.14,21.5,23.1,"13:13:52",1
"16/09/24","13:30",0.0,25.7,79.3,1008.6,309.4,0.2,0.6,265.4,0.25,21.9,23.2,"13:20:40",1
"16/09/24","13:40",0.0,25.4,76.4,1009.0,270.5,0.8,1.8,229.7,0.23,21.0,23.4,"13:38:00",1
"16/09/24","13:50",0.0,25.2,77.0,1008.8,167.6,0.5,1.9,230.2,0.12,20.9,23.5,"13:48:24",1
"16/09/24","14:00",0.2,25.3,76.0,1009.0,218.4,0.7,2.1,213.9,0.06,20.8,23.7,"13:59:36",1
"16/09/24","14:10",0.0,25.0,77.7,1009.0,198.7,1.1,2.9,225.4,0.09,20.9,23.6,"14:00:32",1
"16/09/24","14:20",0.0,25.2,76.9,1008.8,176.0,0.7,1.8,188.8,0.09,20.9,23.7,"14:17:12",1
"16/09/24","14:30",0.0,25.1,77.6,1009.3,196.6,0.5,1.6,184.2,0.05,21.0,23.7,"14:27:36",1
"16/09/24","14:40",0.0,24.9,78.0,1008.8,116.3,0.6,1.7,120.4,0.04,20.8,23.7,"14:34:48",1
"16/09/24","14:50",0.0,24.9,78.2,1008.6,69.4,0.7,2.0,104.0,0.05,20.9,23.7,"14:46:32",1
"16/09/24","15:00",0.0,24.7,78.4,1008.8,63.2,0.7,1.6,77.3,0.04,20.7,23.7,"14:51:04",1
"16/09/24","15:10",0.0,24.6,79.5,1008.6,89.0,0.6,2.1,107.2,0.05,20.9,23.8,"15:00:08",1
"16/09/24","15:20",0.0,25.3,77.7,1008.8,69.1,0.5,1.7,38.9,0.16,21.2,23.7,"15:12:40",1
"16/09/24","15:30",0.0,25.7,76.0,1009.0,124.4,0.7,1.9,134.1,0.16,21.2,23.7,"15:26:24",1
"16/09/24","15:40",0.0,25.3,76.6,1009.0,184.1,0.6,1.4,125.3,0.11,20.9,23.8,"15:30:56",1
"16/09/24","15:50",0.0,25.5,76.0,1008.6,61.8,0.6,2.1,107.3,0.13,21.0,23.9,"15:47:36",1
"16/09/24","16:00",0.0,25.5,76.2,1008.8,178.5,0.6,2.0,117.3,0.07,21.0,24.0,"15:56:32",1
"16/09/24","16:10",0.0,25.3,75.5,1008.8,122.6,0.5,1.8,167.8,0.04,20.7,23.9,"16:09:28",1
"16/09/24","16:20",0.0,24.9,76.8,1009.3,191.8,0.8,2.4,181.1,0.03,20.6,24.1,"16:17:04",1
"16/09/24","16:30",0.0,24.8,78.3,1009.0,191.9,0.7,2.1,158.6,0.03,20.8,23.8,"16:23:44",1
"16/09/24","16:40",0.0,25.0,77.2,1009.5,180.6,0.6,1.9,202.3,0.05,20.8,23.8,"16:36:32",1
"16/09/24","16:50",0.0,25.1,77.1,1009.3,195.2,0.8,1.7,211.4,0.04,20.8,23.7,"16:44:56",1
"16/09/24","17:00",0.0,24.8,77.7,1009.0,195.8,0.5,1.4,176.4,0.02,20.7,23.8,"16:50:08",1
"16/09/24","17:10",0.0,24.7,78.3,1009.5,147.6,0.3,1.0,155.2,0.01,20.7,23.8,"17:06:32",1
"16/09/24","17:20",0.0,24.4,79.8,1009.5,269.9,0.3,1.0,31.2,0.00,20.7,23.9,"17:18:08",1
"16/09/24","17:30",0.0,24.3,80.5,1009.5,347.7,0.6,1.4,343.2,0.00,20.8,24.0,"17:28:56",1
"16/09/24","17:40",0.0,24.1,81.3,1009.7,343.1,0.6,1.6,344.5,0.00,20.7,23.8,"17:30:08",1
"16/09/24","17:50",0.0,23.9,82.0,1009.5,345.1,0.5,1.3,358.7,0.00,20.7,23.6,"17:44:00",1
"16/09/24","18:00",0.0,23.7,82.2,1009.7,58.7,0.2,1.1,119.3,0.00,20.5,23.8,"17:59:52",1
"16/09/24","18:10",0.0,23.7,82.1,1009.7,82.9,0.5,1.6,101.0,0.00,20.5,23.5,"18:05:52",1
"16/09/24","18:20",0.0,23.7,82.1,1010.0,31.1,0.5,1.2,35.1,0.00,20.5,23.6,"18:18:24",1
"16/09/24","18:30",0.0,23.7,82.8,1009.7,345.2,0.7,1.6,340.9,0.00,20.6,23.5,"18:20:56",1
"16/09/24","18:40",0.0,23.5,83.2,1010.2,314.2,0.6,1.1,334.2,0.00,20.5,23.4,"18:34:00",1
"16/09/24","18:50",0.0,23.4,83.4,1010.4,346.2,0.7,1.4,323.9,0.00,20.5,23.4,"18:41:20",1
"16/09/24","19:00",0.0,23.3,83.8,1010.0,304.3,0.7,1.3,329.7,0.00,20.4,23.5,"18:51:12",1
"16/09/24","19:10",0.0,23.0,85.0,1010.4,313.3,1.0,1.3,316.4,0.00,20.4,23.6,"19:06:48",1
"16/09/24","19:20",0.0,22.8,86.5,1010.2,292.7,0.8,1.7,325.2,0.00,20.5,23.6,"19:10:40",1
"16/09/24","19:30",0.0,22.6,87.2,1010.7,287.4,0.7,1.1,319.8,0.00,20.4,23.6,"19:26:08",1
"16/09/24","19:40",0.0,22.4,87.9,1011.2,287.4,0.7,1.1,334.2,0.00,20.3,23.2,"19:32:00",1
"16/09/24","19:50",0.0,22.2,88.7,1010.9,299.2,0.8,1.1,319.3,0.00,20.3,23.1,"19:49:52",1
"16/09/24","20:00",0.0,22.0,89.6,1010.9,299.2,0.8,1.3,318.4,0.00,20.3,23.3,"19:50:16",1
"16/09/24","20:10",0.0,21.9,90.1,1011.4,302.2,0.8,1.2,312.6,0.00,20.2,23.2,"20:08:56",1
"16/09/24","20:20",0.0,21.8,90.7,1011.4,309.9,1.0,1.3,327.2,0.00,20.3,23.2,"20:18:40",1
"16/09/24","20:30",0.0,21.8,91.0,1011.6,323.7,1.2,1.7,320.1,0.00,20.3,23.2,"20:26:08",1
"16/09/24","20:40",0.0,21.7,91.2,1011.2,307.0,0.8,1.2,318.7,0.00,20.2,23.1,"20:31:20",1
"16/09/24","20:50",0.0,21.7,91.8,1011.4,299.7,0.7,1.1,308.6,0.00,20.3,23.0,"20:45:52",1
"16/09/24","21:00",0.0,21.6,92.1,1011.4,296.1,0.8,1.4,321.1,0.00,20.3,23.1,"20:50:02",1
"16/09/24","21:10",0.0,21.6,92.6,1011.2,310.9,1.0,1.3,320.4,0.00,20.4,23.1,"21:00:08",1
"16/09/24","21:20",0.0,21.6,92.7,1011.6,324.0,1.2,1.6,335.7,0.00,20.4,23.1,"21:12:08",1
"16/09/24","21:30",0.0,21.6,92.8,1011.4,312.3,1.0,1.4,335.5,0.00,20.4,23.1,"21:23:28",1
"16/09/24","21:40",0.0,21.6,92.7,1010.9,323.2,1.1,1.8,342.5,0.00,20.4,22.9,"21:37:20",1
"16/09/24","21:50",0.0,21.6,92.6,1011.4,281.4,0.8,1.2,317.5,0.00,20.4,23.1,"21:40:08",1
"16/09/24","22:00",0.0,21.6,92.2,1011.9,285.2,0.8,1.2,267.6,0.00,20.3,23.1,"21:58:00",1
"16/09/24","22:10",0.0,21.6,91.9,1011.6,300.1,0.8,1.3,321.2,0.00,20.3,22.9,"22:06:48",1
"16/09/24","22:20",0.0,21.4,91.9,1011.4,290.7,0.5,0.6,291.5,0.00,20.1,23.0,"22:10:08",1
"16/09/24","22:30",0.0,21.3,92.3,1011.6,311.0,1.0,1.2,310.7,0.00,20.0,22.9,"22:25:12",1
"16/09/24","22:40",0.0,21.3,92.8,1011.4,305.7,0.8,1.4,326.4,0.00,20.1,23.0,"22:36:56",1
"16/09/24","22:50",0.0,21.2,93.2,1011.4,308.8,1.1,1.4,327.3,0.00,20.1,22.8,"22:41:12",1
"16/09/24","23:00",0.0,21.3,93.4,1011.4,314.9,0.8,1.3,322.3,0.00,20.2,22.7,"22:52:40",1
"16/09/24","23:10",0.0,21.3,93.6,1011.6,312.8,1.0,1.4,320.5,0.00,20.3,22.7,"23:06:00",1
"16/09/24","23:20",0.0,21.3,93.6,1011.6,319.2,0.7,1.0,327.2,0.00,20.3,22.7,"23:15:52",1
"16/09/24","23:30",0.0,21.3,93.7,1011.6,310.4,0.8,1.3,315.6,0.00,20.3,22.8,"23:26:00",1
"16/09/24","23:40",0.0,21.3,93.9,1011.9,286.1,0.7,0.8,267.7,0.00,20.3,22.6,"23:34:32",1
"16/09/24","23:50",0.0,21.2,93.8,1011.9,310.5,1.0,1.1,320.6,0.00,20.2,22.8,"23:41:36",1
"16/09/24","24:00",0.0,21.2,93.8,1011.9,310.5,1.0,1.2,325.2,0.00,20.2,22.7,"23:58:56",1
